This is the latest recevied weather packets stored in our database for station/object PY2SDN-13. If no packets are shown the sender has not sent any weather packets the latest 10 day(s).
| Time | Temp. | Humidity | Pressure | Rain* | Wind** | Luminosity | Snow |
|---|---|---|---|---|---|---|---|
| 1777811404 | 18.89° C | 26% | 1018.8 hPa | 1.27 mm | - | 0 W/m² | - |
| 1777810504 | 19.44° C | 26% | 1018.3 hPa | 1.27 mm | - | 0 W/m² | - |
| 1777809604 | 19.44° C | 26% | 1018 hPa | 2.03 mm | - | 0 W/m² | - |
| 1777808704 | 19.44° C | 26% | 1017.8 hPa | 2.29 mm | - | 0 W/m² | - |
| 1777807804 | 19.44° C | 26% | 1017.4 hPa | 2.29 mm | - | 0 W/m² | - |
| 1777806904 | 19.44° C | 26% | 1017.3 hPa | 2.29 mm | - | 0 W/m² | - |
| 1777806004 | 19.44° C | 26% | 1016.9 hPa | 1.78 mm | - | 0 W/m² | - |
| 1777805104 | 19.44° C | 26% | 1016.6 hPa | 1.78 mm | - | 0 W/m² | - |
| 1777804204 | 19.44° C | 26% | 1016.3 hPa | 2.29 mm | - | 0 W/m² | - |
| 1777803304 | 19.44° C | 26% | 1016 hPa | 1.78 mm | - | 0 W/m² | - |
| 1777802404 | 19.44° C | 26% | 1015.6 hPa | 1.52 mm | - | 0 W/m² | - |
| 1777801504 | 20° C | 26% | 1015.7 hPa | 1.27 mm | - | 0 W/m² | - |
| 1777800604 | 20° C | 26% | 1015.4 hPa | 1.02 mm | - | 0 W/m² | - |
| 1777799709 | 20.56° C | 26% | 1015 hPa | 1.27 mm | - | 0 W/m² | - |
| 1777798804 | 20.56° C | 26% | 1014.8 hPa | 1.27 mm | - | 0 W/m² | - |
| 1777797904 | 20.56° C | 26% | 1014.3 hPa | 1.02 mm | - | 0 W/m² | - |
| 1777797004 | 20.56° C | 26% | 1014.2 hPa | 0.51 mm | - | 0 W/m² | - |
| 1777796104 | 21.11° C | 26% | 1014 hPa | 1.27 mm | - | 0 W/m² | - |
| 1777795204 | 22.22° C | 26% | 1013.9 hPa | 1.02 mm | - | 0 W/m² | - |
| 1777794304 | 22.22° C | 26% | 1013.3 hPa | 1.02 mm | - | 0 W/m² | - |
| 1777793404 | 22.22° C | 26% | 1013.2 hPa | 1.02 mm | - | 0 W/m² | - |
| 1777792504 | 22.78° C | 26% | 1013.3 hPa | 0 mm | - | 0 W/m² | - |
| 1777791604 | 22.78° C | 26% | 1013.1 hPa | 0 mm | - | 0 W/m² | - |
| 1777790703 | 22.78° C | 26% | 1013.1 hPa | 0 mm | - | 0 W/m² | - |
| 1777789804 | 22.78° C | 26% | 1013.2 hPa | 0 mm | - | 0 W/m² | - |
* Rain latest hour (hover to see other rain measurements)
** Current wind speed in m/s (hover to see current wind gust speed)